SCP
1 1 1 1 1 1 1 1 1 1 1 1 1 1 1 1 1 1 1 2 1 1 1 1 0 0 0 0 0 0 0 0 0 0 0 1 1 1 0 0 0 0 0
1 1 1 1 1 1 1 1 1 1 1 1 1 1 1 1 1 1 1 1 1 1 1 1 0 0 0 0 0 0 0 0 0 0 1 1 1 1 0 0 0 0 0
1 1 1 1 1 1 2 2 1 1 1 1 1 1 1 1 1 1 1 1 1 1 1 1 1 0 0 0 0 0 0 0 0 1 1 1 1 1 0 0 0 0 0
1 1 1 1 1 1 1 2 2 1 1 1 1 1 1 1 1 1 1 1 1 1 1 1 1 1 1 0 0 0 0 0 0 1 1 1 1 0 0 0 1 0 0
1 1 1 1 1 1 1 1 1 2 1 1 1 1 1 1 1 1 1 1 1 1 1 1 1 1 1 1 1 1 0 0 0 1 1 1 1 0 0 0 1 0 0
0 1 1 1 1 1 1 1 1 1 1 1 1 1 1 1 1 1 1 1 1 1 1 1 1 1 1 1 1 1 1 1 1 1 1 1 1 1 1 0 0 0 0
0 0 1 1 1 1 1 1 1 1 1 1 1 1 1 1 1 1 1 1 1 1 1 1 1 1 1 1 1 1 1 1 1 1 1 1 1 1 1 1 0 0 0
0 0 0 1 1 1 1 1 1 1 1 1 1 1 1 1 1 1 1 1 1 1 1 1 1 1 1 1 1 1 1 1 1 1 1 1 1 1 1 1 1 0 0
0 0 0 0 1 1 1 1 1 1 1 1 1 1 1 1 1 1 1 1 1 1 1 1 1 1 1 1 1 1 1 1 2 2 1 1 1 1 1 1 1 1 1
0 0 0 0 0 1 1 1 1 1 1 1 1 1 1 1 1 1 1 1 1 1 1 1 1 1 1 1 1 1 1 1 1 2 2 1 1 1 1 1 1 1 1
0 0 0 0 0 1 1 1 1 1 1 1 1 1 1 1 1 1 1 1 1 2 2 2 1 1 1 1 1 1 1 1 1 2 2 2 1 1 1 1 1 1 1
0 0 0 0 0 0 1 1 1 1 1 1 1 1 1 1 1 1 1 1 1 2 2 2 2 1 1 1 1 1 1 1 1 1 2 2 1 1 1 1 1 1 1
0 0 0 0 0 0 0 1 1 1 1 1 1 1 1 1 1 1 1 1 1 1 2 2 2 2 2 1 1 1 1 1 1 1 1 1 1 1 1 1 1 1 1
0 0 0 0 0 0 0 1 1 1 1 1 1 1 1 1 1 1 1 1 1 1 1 1 2 2 2 1 1 1 1 1 1 1 1 1 1 1 1 1 1 1 1
0 0 0 0 0 0 0 1 1 1 1 1 1 1 1 1 1 1 1 1 1 1 1 1 1 1 2 1 1 1 1 1 1 1 1 1 1 1 1 1 1 1 1
0 0 0 0 0 0 0 0 0 0 0 1 1 1 1 1 1 1 1 1 1 1 1 1 1 1 1 1 1 1 1 1 1 1 1 1 1 1 1 1 1 1 1
0 0 0 0 0 0 0 0 0 0 0 1 1 1 1 1 1 1 1 1 1 1 1 1 1 1 1 1 1 1 1 1 1 1 1 1 1 0 0 0 0 0 0
0 0 0 0 0 0 0 0 0 0 0 0 1 1 1 1 1 1 1 1 1 1 1 1 1 1 1 1 1 1 1 1 1 1 0 0 0 0 0 0 0 0 0
0 0 0 0 0 0 0 0 0 0 0 0 0 1 1 1 1 1 1 1 1 1 1 1 1 1 1 1 1 1 1 1 1 1 0 0 0 0 0 0 0 0 0
0 0 0 0 0 0 0 0 0 0 0 0 0 0 0 0 1 1 1 1 1 1 1 1 1 1 1 1 1 1 1 1 1 1 0 0 0 0 0 0 0 0 0
0 0 0 0 0 0 0 0 0 0 0 0 0 0 0 0 1 1 1 1 1 1 1 1 1 1 1 1 1 1 1 1 1 1 0 0 0 0 0 0 0 0 0
0 0 0 0 0 0 0 0 0 0 0 0 0 0 0 0 1 1 1 1 1 1 1 1 1 1 1 1 1 1 1 1 1 1 0 0 0 0 0 0 0 0 0
0 0 0 0 0 0 0 0 0 0 0 0 0 0 0 0 1 1 1 1 1 1 1 1 1 1 1 1 1 1 0 0 0 0 0 0 0 0 0 0 0 0 0
0 0 0 0 0 0 0 0 0 0 0 0 0 0 0 0 0 1 1 1 1 1 1 1 1 1 1 1 1 1 0 0 0 0 0 0 0 0 0 0 0 0 0
0 0 0 0 0 0 0 0 0 0 0 0 0 0 0 0 0 1 1 1 1 1 0 0 0 0 0 1 1 1 0 0 0 0 0 0 0 0 0 0 0 0 0
0 0 0 0 0 0 0 0 0 0 0 0 0 0 0 0 0 1 1 1 1 1 0 0 0 0 0 0 0 0 0 0 0 0 0 0 0 0 0 0 0 0 0
Wind_Speed
3 3 3 3 3 3 4 4 4 5 5 4 4 5 4 4 3 4 6 12 12 10 10 9 9 8 8 7 7 7 7 7 8 9 9 9 9 10 9 9 9 8 8
3 3 4 3 4 3 4 4 5 4 3 2 4 3 3 3 3 5 6 8 12 11 10 10 10 9 9 9 8 8 8 8 8 9 9 9 9 9 9 9 8 8 7
3 3 3 3 3 4 5 3 4 2 3 3 4 4 3 3 2 4 7 6 7 10 11 11 11 10 10 10 9 9 9 8 8 8 9 9 9 9 9 8 8 8 7
5 3 2 2 3 3 3 3 3 2 2 2 2 2 3 2 3 3 5 6 6 7 9 12 11 11 11 11 11 10 10 9 9 9 9 9 9 9 9 8 8 7 6
6 4 2 2 3 2 2 3 3 2 2 2 2 2 2 2 3 4 4 5 6 6 7 10 12 12 11 11 12 11 11 10 10 10 10 10 9 9 9 8 8 7 6
5 4 3 3 2 2 2 2 2 3 3 3 4 3 2 2 3 3 3 3 4 6 8 8 7 8 11 11 11 12 11 11 11 11 11 11 10 9 9 8 8 7 7
4 4 4 3 3 2 3 3 2 3 3 2 1 2 2 3 4 3 2 2 3 4 6 9 7 6 6 10 11 12 12 12 12 12 11 11 10 10 10 9 8 8 7
4 5 4 3 3 2 3 3 2 2 2 3 3 2 1 2 3 4 2 2 3 3 4 7 7 8 8 6 8 12 11 12 13 12 12 12 11 10 10 9 8 8 7
4 3 4 4 3 2 2 3 3 3 3 3 4 3 3 3 2 2 2 2 2 2 3 4 6 7 8 8 8 10 12 11 12 13 12 12 12 11 10 9 9 8 7
3 3 3 4 3 2 2 3 3 2 3 3 2 3 3 2 2 1 2 2 2 2 2 2 4 5 6 7 9 12 13 12 12 13 13 13 12 12 11 10 9 8 8
4 4 3 3 3 2 3 2 2 3 2 3 3 2 2 2 2 2 2 2 1 2 3 3 2 3 4 5 7 12 15 13 12 12 12 13 12 12 11 11 10 9 9
3 4 4 3 3 2 2 2 2 3 3 3 3 3 2 2 3 3 3 3 2 2 1 2 2 2 3 4 8 14 15 14 12 11 11 11 11 11 12 11 11 10 9
3 4 4 3 3 2 2 2 2 3 3 3 3 3 3 3 2 2 2 2 2 1 1 1 2 2 3 4 5 13 14 14 13 12 10 10 10 10 10 10 10 10 9
4 5 4 4 3 3 3 2 2 3 3 3 4 3 3 3 3 3 3 3 2 1 2 2 1 2 3 4 7 12 9 14 13 12 11 10 9 9 9 9 9 9 9
5 5 5 4 3 3 3 2 2 3 2 3 3 3 3 3 3 3 3 4 4 3 3 3 2 3 3 3 8 6 7 12 13 12 11 10 10 9 9 8 8 8 7
5 5 5 4 3 3 2 2 2 3 2 3 3 3 3 3 3 3 3 3 4 4 3 3 3 3 4 4 8 5 6 12 13 12 12 11 10 10 9 9 8 8 7
6 5 5 4 4 3 2 2 3 2 2 2 2 3 3 3 3 3 3 3 4 4 3 2 2 2 3 4 4 4 5 6 7 11 11 11 11 10 10 9 9 8 8
6 6 5 4 4 4 3 3 3 3 2 2 2 2 3 3 3 3 3 4 4 4 4 4 2 2 3 4 5 4 4 5 5 10 12 11 11 11 10 9 9 9 9
6 6 6 5 5 4 4 4 4 3 2 2 2 2 2 2 2 2 3 3 3 4 4 4 3 2 2 3 4 3 4 3 4 7 10 9 10 10 10 10 10 9 9
6 6 6 6 5 5 5 5 5 4 3 2 1 1 1 1 1 1 1 1 2 2 3 4 3 3 2 3 4 4 3 2 3 4 5 6 8 9 10 10 10 10 9
6 5 5 5 5 4 5 6 5 5 3 2 2 1 1 1 1 1 1 1 1 1 2 3 3 3 3 4 4 3 4 4 2 2 4 4 4 4 5 8 10 10 10
5 5 5 5 5 5 8 8 6 4 4 3 2 1 1 2 2 3 3 2 2 2 2 3 3 4 5 5 4 5 5 4 3 3 4 3 3 4 4 4 8 11 11
4 4 5 5 5 5 8 9 9 5 3 2 2 1 1 1 0 1 2 3 3 4 4 3 4 5 5 6 7 6 5 4 3 4 4 3 3 3 3 5 10 11 11
4 3 4 4 4 5 8 8 9 4 3 3 3 2 1 2 2 2 1 1 1 1 3 3 3 3 3 5 6 6 6 5 4 2 3 3 2 2 3 3 9 10 10
4 4 3 4 4 5 7 7 8 3 3 3 3 4 4 3 4 4 1 1 1 0 1 3 4 3 4 6 7 6 6 6 4 2 2 3 3 2 2 2 5 9 9
3 3 3 3 3 3 4 6 7 3 3 3 3 3 5 4 5 4 1 1 1 1 1 2 2 3 3 5 8 7 7 7 4 3 3 3 3 3 2 1 2 4 5
Wind_Direction
236 241 235 220 219 222 225 222 222 236 239 245 250 232 224 214 187 160 151 160 159 165 170 172 172 169 168 167 164 160 157 152 151 148 144 142 139 137 133 130 129 126 124
235 229 235 232 226 224 227 218 226 224 237 246 267 270 258 240 201 145 154 166 167 170 174 177 176 174 173 172 169 164 160 155 153 152 149 145 142 141 140 138 135 134 132
275 255 237 233 232 221 222 217 230 229 222 228 240 253 255 241 244 170 163 165 172 178 180 180 179 178 176 174 170 168 164 159 156 156 155 151 148 148 145 146 143 141 138
315 304 275 254 245 236 221 211 212 232 234 227 234 256 268 241 241 217 169 169 171 177 183 183 178 178 178 176 174 172 169 166 163 162 160 157 156 156 154 154 150 147 143
318 313 306 285 272 252 229 227 211 198 231 239 238 234 259 270 241 232 199 189 175 168 169 182 178 177 178 179 179 176 173 173 172 169 166 164 163 162 159 157 155 152 147
314 316 299 291 287 273 252 236 222 204 213 217 240 243 231 257 260 238 223 200 170 173 167 171 174 180 180 179 178 177 175 174 174 173 170 167 164 163 162 162 161 159 158
318 304 296 295 287 270 263 250 239 220 218 201 201 266 273 257 268 257 232 216 174 182 165 165 177 173 177 180 179 178 179 179 178 177 175 170 166 166 166 167 167 167 167
319 310 303 286 272 258 259 259 241 218 229 197 178 171 223 265 267 249 229 225 201 178 167 174 179 172 169 170 181 180 180 181 182 181 179 176 171 170 170 172 173 175 174
310 309 303 297 285 266 246 245 240 224 219 219 198 184 177 199 224 266 240 231 212 195 178 175 180 173 170 167 169 178 176 177 182 184 181 179 176 175 176 178 180 179 177
315 312 297 290 286 280 263 246 237 235 217 222 227 223 214 170 165 217 282 257 227 197 191 205 183 167 168 163 164 170 174 175 179 184 185 183 181 181 183 184 184 183 182
325 322 314 303 294 286 276 263 253 243 226 220 215 217 225 211 199 177 208 230 248 229 194 201 171 166 161 157 158 167 171 174 177 181 185 185 186 187 188 187 187 188 188
320 329 321 308 300 288 280 274 256 248 241 237 225 208 206 193 196 194 194 200 207 240 216 195 175 171 161 151 165 163 169 172 176 179 182 183 185 189 191 192 192 190 189
322 321 315 305 296 290 285 277 258 249 241 237 231 220 213 214 202 195 183 191 199 225 208 234 198 179 170 149 153 160 169 172 175 177 178 180 182 185 189 191 192 191 191
313 314 314 307 305 296 286 277 264 251 244 235 236 226 219 216 210 195 181 168 169 217 227 221 206 192 179 154 160 164 170 175 176 176 176 177 179 180 182 186 188 188 190
321 329 317 311 303 297 287 279 268 262 252 243 237 226 220 218 213 202 188 175 170 181 213 210 201 191 185 155 161 173 169 178 178 177 176 176 177 177 176 177 178 176 178
328 322 323 320 316 308 299 291 279 257 251 251 242 231 224 215 208 203 195 193 187 180 196 203 196 179 177 169 174 181 171 173 178 177 177 175 174 172 173 175 173 172 172
331 331 329 337 332 323 317 311 301 279 253 252 249 236 229 215 204 205 200 197 193 186 191 195 180 171 168 163 163 173 156 170 177 176 176 176 175 174 174 175 175 173 170
339 337 339 350 344 342 346 333 320 312 277 266 259 245 243 231 210 202 203 202 201 192 179 183 178 175 179 163 157 160 153 158 163 173 176 177 177 176 173 171 169 167 165
347 348 350 353 350 352 350 340 335 322 301 277 261 243 242 232 229 215 206 200 205 201 177 170 168 163 168 155 143 139 135 132 150 160 167 169 172 170 170 166 162 161 161
355 356 355 355 355 355 352 351 344 334 324 305 289 272 256 224 233 216 210 202 197 193 174 169 166 158 158 153 143 146 141 137 144 145 149 156 163 161 163 162 161 160 159
358 357 358 355 354 355 3 360 342 331 326 319 306 283 200 153 158 151 179 166 138 180 171 170 171 160 163 160 166 156 148 139 131 139 140 152 158 161 169 166 163 163 160
351 358 358 355 357 3 359 356 348 331 330 330 324 317 225 190 181 177 185 184 174 187 192 184 187 181 184 172 156 157 150 152 166 169 152 158 156 158 162 164 164 162 160
355 358 353 355 358 359 355 354 351 338 326 329 331 342 343 2 140 158 179 188 199 217 217 203 202 201 185 174 167 168 167 164 161 162 148 157 160 159 151 154 160 162 162
347 342 341 346 351 358 7 5 352 348 346 351 360 1 14 31 26 27 89 148 174 209 218 205 203 209 187 170 171 169 159 139 111 128 139 145 154 147 137 147 163 165 166
328 327 333 346 352 2 18 14 3 349 1 5 16 23 27 41 34 20 70 136 139 144 138 152 154 159 157 163 157 146 150 151 148 157 148 135 142 119 108 140 169 170 169
304 315 327 336 353 2 25 20 12 358 356 359 9 28 42 39 21 9 10 157 158 169 130 114 114 130 147 158 173 175 169 165 150 157 170 140 142 134 128 124 145 157 160